Fort Benning, AL

3:40 AM CDT on August 17, 2017 (GMT -0500)
Lawson Army Air Field

Weather History for KLSF - January, 2013

Change the Weather History Date:

Tuesday, January 15, 2013

  Actual Average Record
Temperature  
Mean Temperature 68 °F -  
Max Temperature 78 °F 57 °F 78 °F (2013)
Min Temperature 58 °F 32 °F 18 °F (2011)
Cooling Degree Days 3    
Growing Degree Days 18 (Base 50)    
Moisture  
Dew Point 65 °F    
Average Humidity 92    
Maximum Humidity 100    
Minimum Humidity 65    
Precipitation  
Precipitation 0.19 in - - ()
Sea Level Pressure  
Sea Level Pressure 30.02 in    
Wind  
Wind Speed 5 mph (South)    
Max Wind Speed 16 mph    
Max Gust Speed 22 mph    
Visibility 7 miles    
Events Fog , Rain    
Averages and records for this station are not official NWS values.
T = Trace of Precipitation, MM = Missing Value Source: NWS Daily Summary

Daily Weather History Graph

Daily Weather History Graph

Search for Another Location

Airport or City:

Trip Planner

Search our weather history database for the weather conditions in past years. The results will help you decide how hot, cold, wet, or windy it might be!

Date:

Astronomy

Jan. 15, 2013 Rise Set
Actual Time 7:41 AM EST 5:57 PM EST
Civil Twilight 7:14 AM EST 6:24 PM EST
Nautical Twilight 6:44 AM EST 6:54 PM EST
Astronomical Twilight 6:15 AM EST 7:23 PM EST
Moon 10:04 AM EST (1/15) 10:27 PM EST (1/15)
Length of Visible Light 11h 09m
Length of Day
10h 16m
Waxing Crescent, 19% of the Moon is Illuminated
Jan 15
Waxing Crescent
Jan 18
First Quarter
Jan 26
Full
Feb 3
Last Quarter
Feb 10
New

Hourly Weather History & Observations

Time (EST) Temp. Dew Point Humidity Pressure Visibility Wind Dir Wind Speed Gust Speed Precip Events Conditions
12:32 AM 64.4 °F 62.6 °F 94% 30.09 in 10.0 mi Calm Calm - N/A   Overcast
12:55 AM 63.0 °F 61.9 °F 96% 30.09 in 10.0 mi Calm Calm - N/A   Overcast
1:44 AM 60.8 °F 60.8 °F 100% 30.09 in 2.5 mi Calm Calm - N/A   Clear
1:45 AM 60.8 °F 60.8 °F 100% 30.09 in 1.8 mi Calm Calm - N/A   Clear
1:46 AM 60.8 °F 60.8 °F 100% 30.09 in 1.5 mi Calm Calm - N/A   Clear
1:49 AM 60.8 °F 59.0 °F 94% 30.09 in 1.2 mi Calm Calm - N/A   Clear
1:51 AM 60.8 °F 59.0 °F 94% 30.09 in 1.2 mi Calm Calm - N/A   Clear
1:55 AM 60.3 °F 60.1 °F 99% 30.08 in 1.2 mi Calm Calm - N/A   Clear
1:56 AM 60.8 °F 60.8 °F 100% 30.08 in 1.0 mi Calm Calm - N/A   Clear
1:58 AM 60.8 °F 60.8 °F 100% 30.08 in 0.8 mi Calm Calm - N/A   Clear
2:02 AM 60.8 °F 60.8 °F 100% 30.08 in 0.8 mi Calm Calm - N/A   Clear
2:03 AM 60.8 °F 60.8 °F 100% 30.08 in 0.5 mi Calm Calm - N/A Fog Fog
2:55 AM 58.8 °F 58.6 °F 99% 30.07 in 0.5 mi Calm Calm - N/A Fog Fog
3:09 AM 59.0 °F 59.0 °F 100% 30.07 in 0.5 mi Calm Calm - N/A Fog Fog
3:10 AM 59.0 °F 59.0 °F 100% 30.07 in 0.8 mi Calm Calm - N/A   Mostly Cloudy
3:21 AM 60.8 °F 59.0 °F 94% 30.06 in 0.8 mi Calm Calm - N/A   Partly Cloudy
3:24 AM 60.8 °F 60.8 °F 100% 30.06 in 1.0 mi Calm Calm - N/A   Partly Cloudy
3:25 AM 60.8 °F 60.8 °F 100% 30.06 in 1.2 mi Calm Calm - N/A   Scattered Clouds
3:26 AM 62.6 °F 60.8 °F 94% 30.06 in 1.8 mi Calm Calm - N/A   Scattered Clouds
3:32 AM 62.6 °F 62.6 °F 100% 30.06 in 1.8 mi Calm Calm - N/A   Mostly Cloudy
3:34 AM 62.6 °F 62.6 °F 100% 30.06 in 2.0 mi SSE 3.5 mph - N/A   Mostly Cloudy
3:37 AM 62.6 °F 60.8 °F 94% 30.06 in 4.0 mi SSE 4.6 mph - N/A   Mostly Cloudy
3:55 AM 63.0 °F 61.9 °F 96% 30.05 in 10.0 mi SSE 8.1 mph - N/A   Partly Cloudy
4:22 AM 64.4 °F 62.6 °F 94% 30.05 in 10.0 mi South 9.2 mph - N/A   Mostly Cloudy
4:55 AM 63.9 °F 62.1 °F 94% 30.05 in 10.0 mi SSE 6.9 mph - N/A   Overcast
5:17 AM 64.4 °F 62.6 °F 94% 30.05 in 10.0 mi South 6.9 mph - N/A   Overcast
5:23 AM 64.4 °F 62.6 °F 94% 30.04 in 10.0 mi SSE 6.9 mph - N/A   Overcast
5:26 AM 64.4 °F 62.6 °F 94% 30.04 in 10.0 mi SSE 6.9 mph - N/A   Overcast
5:55 AM 64.2 °F 62.4 °F 94% 30.04 in 10.0 mi South 5.8 mph - N/A   Overcast
6:42 AM 64.4 °F 62.6 °F 94% 30.04 in 10.0 mi South 8.1 mph - N/A   Overcast
6:55 AM 64.0 °F 62.2 °F 94% 30.05 in 10.0 mi South 6.9 mph - N/A   Overcast
7:13 AM 64.4 °F 62.6 °F 94% 30.05 in 10.0 mi South 5.8 mph - N/A   Overcast
7:34 AM 64.4 °F 62.6 °F 94% 30.07 in 10.0 mi South 6.9 mph - N/A   Overcast
7:55 AM 64.0 °F 63.0 °F 96% 30.07 in 8.0 mi South 6.9 mph - N/A   Overcast
8:18 AM 64.4 °F 62.6 °F 94% 30.08 in 7.0 mi South 9.2 mph - N/A   Overcast
8:33 AM 64.4 °F 62.6 °F 94% 30.08 in 8.0 mi South 6.9 mph - N/A   Overcast
8:50 AM 64.4 °F 64.4 °F 100% 30.08 in 6.0 mi SSE 9.2 mph - N/A   Overcast
8:55 AM 64.4 °F 64.0 °F 99% 30.08 in 7.0 mi South 8.1 mph - N/A   Overcast
9:55 AM 66.6 °F 64.0 °F 92% 30.07 in 10.0 mi South 6.9 mph - N/A   Overcast
10:01 AM 66.2 °F 64.4 °F 94% 30.07 in 10.0 mi South 9.2 mph - N/A   Overcast
10:32 AM 68.0 °F 64.4 °F 88% 30.06 in 10.0 mi South 6.9 mph - N/A   Overcast
10:55 AM 69.4 °F 64.8 °F 85% 30.06 in 10.0 mi SSW 8.1 mph - N/A   Overcast
11:01 AM 69.8 °F 64.4 °F 83% 30.06 in 10.0 mi South 12.7 mph - N/A   Overcast
11:55 AM 70.5 °F 64.9 °F 82% 30.03 in 10.0 mi South 10.4 mph 17.3 mph N/A   Overcast
12:11 PM 71.6 °F 64.4 °F 78% 30.02 in 10.0 mi South 11.5 mph - N/A   Overcast
12:32 PM 73.4 °F 64.4 °F 73% 30.01 in 10.0 mi South 12.7 mph - N/A   Overcast
12:55 PM 73.0 °F 64.0 °F 73% 30.00 in 10.0 mi South 15.0 mph 21.9 mph N/A   Overcast
1:12 PM 73.4 °F 64.4 °F 73% 29.99 in 10.0 mi South 15.0 mph - N/A   Overcast
1:28 PM 75.2 °F 64.4 °F 69% 29.99 in 10.0 mi South 12.7 mph - N/A   Overcast
1:42 PM 75.2 °F 64.4 °F 69% 29.99 in 10.0 mi South 15.0 mph 20.7 mph N/A   Overcast
1:43 PM 75.2 °F 64.4 °F 69% 29.99 in 10.0 mi South 13.8 mph 20.7 mph N/A   Overcast
1:55 PM 75.4 °F 63.9 °F 67% 29.99 in 10.0 mi South 11.5 mph 20.7 mph N/A   Overcast
2:00 PM 75.2 °F 64.4 °F 69% 29.99 in 10.0 mi South 16.1 mph 20.7 mph N/A   Overcast
2:55 PM 77.2 °F 64.6 °F 65% 29.98 in 10.0 mi SSW 13.8 mph - N/A   Mostly Cloudy
3:18 PM 77.0 °F 64.4 °F 65% 29.97 in 10.0 mi South 16.1 mph 21.9 mph N/A   Mostly Cloudy
3:32 PM 78.8 °F 66.2 °F 65% 29.97 in 10.0 mi South 9.2 mph 21.9 mph N/A   Scattered Clouds
3:55 PM 76.5 °F 65.1 °F 68% 29.97 in 10.0 mi SSE 10.4 mph 19.6 mph N/A   Scattered Clouds
4:55 PM 75.2 °F 65.5 °F 72% 29.99 in 10.0 mi South 11.5 mph - N/A   Mostly Cloudy
5:37 PM 73.4 °F 64.4 °F 73% 29.99 in 10.0 mi South 11.5 mph - N/A Rain Light Rain
5:48 PM 73.4 °F 66.2 °F 78% 29.99 in 10.0 mi South 11.5 mph - N/A Rain Light Rain
5:55 PM 72.0 °F 66.2 °F 82% 29.99 in 10.0 mi South 11.5 mph - 0.00 in Rain Light Rain
5:57 PM 71.6 °F 66.2 °F 83% 29.99 in 10.0 mi South 12.7 mph - N/A Rain Light Rain
6:01 PM 71.6 °F 66.2 °F 83% 29.99 in 10.0 mi South 11.5 mph - N/A Rain Light Rain
6:04 PM 71.6 °F 66.2 °F 83% 29.99 in 10.0 mi South 10.4 mph - N/A Rain Light Rain
6:17 PM 69.8 °F 66.2 °F 88% 30.01 in 10.0 mi South 15.0 mph - N/A Rain Light Rain
6:23 PM 69.8 °F 68.0 °F 94% 30.01 in 6.0 mi South 13.8 mph - N/A Rain Heavy Rain
6:27 PM 69.8 °F 68.0 °F 94% 30.01 in 4.0 mi South 9.2 mph - N/A Rain Rain
6:28 PM 69.8 °F 68.0 °F 94% 30.01 in 4.0 mi South 8.1 mph - N/A Rain Rain
6:31 PM 68.0 °F 68.0 °F 100% 30.01 in 4.0 mi South 8.1 mph - N/A Rain Rain
6:32 PM 68.0 °F 68.0 °F 100% 30.00 in 4.0 mi South 6.9 mph - N/A Rain Rain
6:36 PM 68.0 °F 68.0 °F 100% 30.01 in 5.0 mi South 6.9 mph - N/A Rain Light Rain
6:39 PM 68.0 °F 68.0 °F 100% 30.01 in 5.0 mi South 6.9 mph - N/A Rain Light Rain
6:40 PM 68.0 °F 68.0 °F 100% 30.01 in 5.0 mi SSW 6.9 mph - N/A Rain Rain
6:41 PM 68.0 °F 68.0 °F 100% 30.01 in 5.0 mi SSW 8.1 mph - N/A Rain Light Rain
6:42 PM 68.0 °F 68.0 °F 100% 30.01 in 6.0 mi SSW 8.1 mph - N/A Rain Light Rain
6:44 PM 68.0 °F 68.0 °F 100% 30.01 in 6.0 mi SSW 9.2 mph - N/A Rain Light Rain
6:45 PM 68.0 °F 68.0 °F 100% 30.01 in 5.0 mi South 8.1 mph - N/A Rain Light Rain
6:46 PM 68.0 °F 68.0 °F 100% 30.01 in 5.0 mi South 8.1 mph - N/A Rain Light Rain
6:47 PM 68.0 °F 68.0 °F 100% 30.01 in 5.0 mi South 8.1 mph - N/A Rain Light Rain
6:52 PM 68.0 °F 68.0 °F 100% 30.01 in 4.0 mi South 10.4 mph - N/A Rain Heavy Rain
6:54 PM 68.0 °F 68.0 °F 100% 30.01 in 3.0 mi South 10.4 mph - N/A Rain Heavy Rain
6:55 PM 68.4 °F 68.0 °F 99% 30.01 in 3.0 mi South 11.5 mph - 0.16 in Rain Heavy Rain
6:59 PM 68.0 °F 68.0 °F 100% 30.02 in 3.0 mi WSW 10.4 mph - N/A Rain Rain
7:00 PM 68.0 °F 68.0 °F 100% 30.02 in 3.0 mi WSW 10.4 mph - N/A Rain Rain
7:04 PM 68.0 °F 68.0 °F 100% 30.02 in 5.0 mi SSW 11.5 mph - N/A Rain Light Rain
7:07 PM 68.0 °F 66.2 °F 94% 30.02 in 7.0 mi South 13.8 mph 20.7 mph N/A Rain Light Rain
7:34 PM 68.0 °F 66.2 °F 94% 30.00 in 10.0 mi SSE 6.9 mph - N/A   Overcast
7:38 PM 68.0 °F 66.2 °F 94% 30.00 in 10.0 mi SSE 6.9 mph - N/A   Light Drizzle
7:41 PM 68.0 °F 66.2 °F 94% 30.00 in 10.0 mi SSE 6.9 mph - N/A   Light Drizzle
7:43 PM 68.0 °F 66.2 °F 94% 30.00 in 10.0 mi SSE 5.8 mph - N/A   Light Drizzle
7:46 PM 68.0 °F 66.2 °F 94% 30.00 in 10.0 mi SSE 5.8 mph - N/A   Light Drizzle
7:47 PM 68.0 °F 66.2 °F 94% 30.00 in 10.0 mi SSE 5.8 mph - N/A   Overcast
7:55 PM 67.3 °F 66.6 °F 98% 30.00 in 10.0 mi South 6.9 mph - 0.03 in   Mostly Cloudy
8:18 PM 68.0 °F 66.2 °F 94% 30.00 in 10.0 mi South 5.8 mph - N/A   Overcast
8:29 PM 68.0 °F 66.2 °F 94% 30.00 in 10.0 mi South 9.2 mph - N/A   Overcast
8:37 PM 66.2 °F 66.2 °F 100% 29.99 in 10.0 mi SSE 5.8 mph - N/A   Overcast
8:38 PM 66.2 °F 66.2 °F 100% 29.99 in 10.0 mi SSE 6.9 mph - N/A   Overcast
8:40 PM 66.2 °F 66.2 °F 100% 29.99 in 10.0 mi South 8.1 mph - N/A   Overcast
8:41 PM 66.2 °F 66.2 °F 100% 29.99 in 10.0 mi SSE 6.9 mph - N/A   Overcast
8:44 PM 66.2 °F 66.2 °F 100% 29.99 in 10.0 mi SSE 6.9 mph - N/A   Overcast
8:51 PM 66.2 °F 66.2 °F 100% 29.99 in 10.0 mi SSE 6.9 mph - N/A   Overcast
8:55 PM 67.1 °F 66.7 °F 99% 29.99 in 10.0 mi SSE 6.9 mph - N/A   Overcast
8:57 PM 68.0 °F 66.2 °F 94% 29.99 in 10.0 mi SSE 6.9 mph - N/A   Overcast
9:26 PM 68.0 °F 66.2 °F 94% 29.99 in 10.0 mi South 9.2 mph - N/A   Overcast
9:40 PM 68.0 °F 66.2 °F 94% 29.99 in 10.0 mi SSE 6.9 mph - N/A   Overcast
9:43 PM 66.2 °F 66.2 °F 100% 29.99 in 10.0 mi SSE 8.1 mph - N/A   Overcast
9:55 PM 67.1 °F 66.2 °F 97% 29.99 in 10.0 mi South 5.8 mph - N/A   Overcast
10:02 PM 66.2 °F 66.2 °F 100% 29.99 in 10.0 mi South 6.9 mph - N/A   Overcast
10:32 PM 66.2 °F 64.4 °F 94% 29.99 in 10.0 mi South 6.9 mph - N/A   Scattered Clouds
10:55 PM 65.5 °F 64.8 °F 98% 29.98 in 10.0 mi SSE 5.8 mph - N/A   Partly Cloudy
11:24 PM 66.2 °F 64.4 °F 94% 29.97 in 10.0 mi SSE 8.1 mph - N/A   Mostly Cloudy
11:53 PM 66.2 °F 64.4 °F 94% 29.97 in 10.0 mi SSE 8.1 mph - N/A   Overcast
11:55 PM 66.2 °F 65.3 °F 97% 29.97 in 10.0 mi SSE 8.1 mph - N/A   Overcast
11:59 PM 66.2 °F 64.4 °F 94% 29.97 in 10.0 mi SSE 6.9 mph - N/A   Overcast